Regional Weather Roundup
Issued by NWS

Home | Current Version | Previous Version | Graphics & Text | Print | Product List | Glossary On
Versions: 1 2 3 4 5 6 7 8 9 10 11 12 13 14 15 16 17 18 19 20 21 22 23 24 25 26 27 28 29 30 31 32 33 34 35 36 37 38 39 40 41 42 43 44 45 46 47 48 49 50
000
ASUS43 KMPX 282001
RWRMN
WEATHER ROUNDUP FOR MINNESOTA
NATIONAL WEATHER SERVICE TWIN CITIES/CHANHASSEN MN
200 PM CST TUE FEB 28 2017


NOTE: "FAIR" INDICATES FEW OR NO CLOUDS BELOW 12,000 FEET WITH NO
SIGNIFICANT WEATHER AND/OR OBSTRUCTIONS TO VISIBILITY. N/A MEANS
CURRENT SKY AND/OR WEATHER CONDITIONS ARE NOT AVAILABLE.

MNZ060>063-068>070-282100-
   Twin Cities Metro

CITY           SKY/WX    TMP DP  RH WIND       PRES   REMARKS
TWIN CITIES    CLOUDY    46  32  58 NE13      29.65F
ST PAUL        CLOUDY    45  35  68 NE12      29.66F
CRYSTAL        CLOUDY    44  31  60 N12       29.65F
BLAINE         CLOUDY    45  34  65 NE12G17   29.67S
LAKEVILLE      CLOUDY    45  37  76 NE9       29.63F
EDEN PRAIRIE   CLOUDY    47  33  58 NE9       29.63F
SOUTH ST PAUL  CLOUDY    46  33  62 NE8       29.64F
LAKE ELMO      CLOUDY    45  34  65 N9        29.66F
$$
MNZ001>005-007-008-013>017-022>024-027-028-282100-
   Northwest Minnesota

CITY           SKY/WX    TMP DP  RH WIND       PRES   REMARKS
BEMIDJI        MOSUNNY   33  20  58 N9        29.79F WCI  25
HALLOCK        SUNNY     23  12  63 N8        29.93F WCI  14
ROSEAU         SUNNY     21  10  63 E13       29.92S WCI   9
WARROAD        SUNNY     21   9  58 NE10G16   29.93S WCI  10
THIEF RVR FALL SUNNY     26  17  68 NE12      29.87  WCI  16
CROOKSTON      SUNNY     28  18  64 N9        29.88F WCI  20
FOSSTON        SUNNY     30  23  74 NE9       29.83F WCI  22
DETROIT LAKES  SUNNY     36  27  69 NE5       29.78F
MOORHEAD       MOSUNNY   30  25  80 N16       29.83F WCI  19
PARK RAPIDS    PTSUNNY   34  21  59 N10       29.77S WCI  26
MAHNOMEN       FAIR      33  25  72 N14       29.80S WCI  24
$$
MNZ006-009>011-018-025>026-282100-
   North Central Minnesota

CITY           SKY/WX    TMP DP  RH WIND       PRES   REMARKS
BAUDETTE       SUNNY     28  12  51 E7        29.88S WCI  21
FLAG ISLAND    SUNNY     19   7  58 N13       29.93F WCI   7
INTL FALLS     SUNNY     26  14  60 N10G17    29.86  WCI  16
WASKISH        PTSUNNY   34  19  55 NE9       29.84F WCI  26
BIG FORK       SUNNY     36  19  51 E8        29.80F
LONGVILLE      CLOUDY    30  23  74 N6        29.78S WCI  24
GRAND RAPIDS   CLOUDY    31  23  72 VRB7      29.80F WCI  24
CRANE LAKE     PTSUNNY   27  19  74 N5        29.86F WCI  21
ORR            SUNNY     32  16  51 CALM      29.79F
COOK           MOSUNNY   30  19  64 NE6       29.81F WCI  24
WALKER         CLOUDY    31  21  66 NE7       29.79S WCI  24
$$
MNZ012-019>021-037-282100-
   Northeast Minnesota

CITY           SKY/WX    TMP DP  RH WIND       PRES   REMARKS
DULUTH         LGT SNOW  32  29  88 E10       29.75S FOG     WCI  24
ELY            CLOUDY    27  19  74 NE9       29.80F WCI  17
HIBBING        CLOUDY    29  21  72 N12       29.78F WCI  19
EVELETH        CLOUDY    32  23  68 NE10      29.79F WCI  24
DULUTH HARBOR  MIX PCPN  32  30  93 NE17      29.80S VSB 1   WCI  21
TWO HARBORS    LGT SNOW  36  30  80 E10       29.76F
SILVER BAY     CLOUDY    32  28  86 E7        29.77F WCI  26
GRAND MARAIS     N/A     32  23  69 N8G20     29.83F WCI  25
G MARAIS ARPRT CLOUDY    25  18  74 N10       29.79S WCI  15
$$
MNZ029>031-032-039>041-046>048-054>057-064-282100-
   West Central Minnesota

CITY           SKY/WX    TMP DP  RH WIND       PRES   REMARKS
FERGUS FALLS   PTSUNNY   34  25  69 NE6       29.80F WCI  29
WHEATON        MOSUNNY   34  25  69 N12       29.79F WCI  25
MORRIS         CLOUDY    36  28  75 N13       29.73F
ALEXANDRIA     CLOUDY    34  27  75 NE10      29.73F WCI  26
ELBOW LAKE     FAIR      31  26  78 NE8       29.76F WCI  24
WADENA         PTSUNNY   28  23  80 N9        29.75F WCI  20
GLENWOOD       CLOUDY    34  30  86 N13       29.72F WCI  25
APPLETON       CLOUDY    36  28  75 N14       29.73F
BENSON         CLOUDY    37  30  75 NE9       29.73F
ORTONVILLE     CLOUDY    30  25  80 N17       29.75F WCI  18
MADISON        CLOUDY    34  28  80 N15       29.73F WCI  24
WILLMAR        CLOUDY    36  34  93 NE15G21   29.70S
$$
MNZ033>034-036-042>043-049>051-058-059-282100-
   Central Minnesota

CITY           SKY/WX    TMP DP  RH WIND       PRES   REMARKS
ST CLOUD       CLOUDY    34  31  88 N12       29.71F WCI  25
SAUK CENTRE    CLOUDY    33  30  90 N10       29.72F WCI  24
PAYNESVILLE    LGT SNOW  33  33 100 N14G21    29.70F WCI  23
AITKIN         LGT SNOW  36  27  69 N8        29.75R
PINE RIVER     CLOUDY    30  25  80 N12       29.81S WCI  21
BRAINERD       CLOUDY    32  27  81 NE10      29.76S HAZE    WCI  24
STAPLES        CLOUDY    30  25  80 NE8       29.76S WCI  23
LONG PRAIRIE   CLOUDY    32  28  86 N8        29.74F WCI  25
LITTLE FALLS   LGT SNOW  32  30  93 N3        29.74F
LITCHFIELD     CLOUDY    39  36  87 NE16      29.68F
BUFFALO        PTSUNNY   42  32  68 N12G17    29.67F
MAPLE LAKE     CLOUDY    40  34  79 N14       29.69F
HUTCHINSON     PTSUNNY   44  36  71 NE16      29.67S
$$
MNZ037-044-045-052-053-282100-
   East Central Minnesota

CITY           SKY/WX    TMP DP  RH WIND       PRES   REMARKS
PRINCETON      DRIZZLE   37  32  81 N10G16    29.71F
MORA           CLOUDY    34  30  86 N3        29.74S
CAMBRIDGE      CLOUDY    39  28  65 N8        29.69S
RUSH CITY      CLOUDY    36  31  83 N8        29.71F
MOOSE LAKE     FLURRIES  34  30  86 NE10G17   29.73S WCI  26
HINCKLEY       LGT SNOW  34  32  93 NE10      29.72F WCI  26
CLOQUET        LGT SNOW  34  28  80 NE6       29.76R WCI  29
MCGREGOR       CLOUDY    32  30  93 N7        29.76S WCI  26
$$
MNZ071>073-080-081-089-090-097-098-282100-
   Southwest Minnesota

CITY           SKY/WX    TMP DP  RH WIND       PRES   REMARKS
MONTEVIDEO     CLOUDY    34  34 100 N10       29.73R FOG     WCI  26
GRANITE FALLS  CLOUDY    37  34  90 N12       29.72S
CANBY          CLOUDY    30  27  88 NW13G18   29.74F WCI  20
MARSHALL       CLOUDY    30  28  92 N14       29.70F WCI  19
REDWOOD FALLS  CLOUDY    43  33  68 N9        29.67S
OLIVIA         CLOUDY    41  34  75 NE9       29.67F
PIPESTONE      CLOUDY    34  28  80 NE10      29.66S HAZE    WCI  26
WINDOM         MOSUNNY   43  36  75 N10       29.64F
WORTHINGTON    CLOUDY    38  34  85 N16       29.64F
JACKSON        CLOUDY    41  36  81 VRB9      29.64F
TRACY          CLOUDY    32  31  96 N13       29.68F WCI  22
SLAYTON        CLOUDY    32  30  94 N15       29.66F FOG     WCI  22
$$
MNZ065>067-074>077-082>085-091>093-282100-
   South Central Minnesota

CITY           SKY/WX    TMP DP  RH WIND       PRES   REMARKS
MANKATO          N/A     46  37  71 NE6       29.64S
NEW ULM        CLOUDY    45  36  70 NE8       29.64F
ST JAMES       CLOUDY    45  39  81 CALM      29.66S
FAIRMONT       PTSUNNY   39  35  86 N6        29.64
GLENCOE        MOSUNNY   45  37  73 N8G16     29.65S
FARIBAULT      CLOUDY    43  36  75 N5        29.64F
OWATONNA       CLOUDY    39  34  81 N7        29.63F
WASECA         CLOUDY    39  34  81 NE12      29.64F
ALBERT LEA     CLOUDY    37  37 100 NE7       29.62S FOG
$$
MNZ078>079-086>088-094>096-282100-
   Southeast Minnesota

CITY           SKY/WX    TMP DP  RH WIND       PRES   REMARKS
ROCHESTER      CLOUDY    39  37  92 NE9       29.62F FOG
RED WING       CLOUDY    43  34  70 E9        29.64F
STANTON        CLOUDY    42  36  79 NE8       29.63F
WINONA         CLOUDY    43  37  81 CALM      29.64S HAZE
AUSTIN         CLOUDY    39  36  87 NE6       29.61F FOG
PRESTON        FOG       38  37  95 NE6       29.61S VSB 1/2
$$
ABBREVIATIONS USED IN REMARKS
   TC - TEMPERATURES IN CELSIUS
  WCI - WIND CHILL INDEX
   HX - HEAT INDEX
  VSB - VISIBILITY
$$




USA.gov is the U.S. government's official web portal to all federal, state and local government web resources and services.